| time (UTC) | temp F | wind direction | speed knots | gust knots | rain 1hr in | rain 24hr in | rain mn in | humidity % | barometer mb |
| 20260502224526 | 74 | 257 | 2.6 | 9.6 | 0.00 | 0.00 | 0.00 | 33 | 1006.4 |
| 20260502223008 | 74 | 288 | 3.5 | 8.7 | 0.00 | 0.00 | 0.00 | 32 | 1006.6 |
| 20260502221506 | 74 | 283 | 0.9 | 6.1 | 0.00 | 0.00 | 0.00 | 32 | 1006.7 |
| 20260502220130 | 74 | 309 | 0.0 | 7.8 | 0.00 | 0.00 | 0.00 | 31 | 1006.8 |
| 20260502214516 | 75 | 215 | 3.5 | 12.2 | 0.00 | 0.00 | 0.00 | 33 | 1007.0 |
| 20260502213014 | 75 | 300 | 4.3 | 11.3 | 0.00 | 0.00 | 0.00 | 33 | 1007.4 |
| 20260502211510 | 74 | 209 | 5.2 | 13.0 | 0.00 | 0.00 | 0.00 | 33 | 1007.8 |
| 20260502204542 | 74 | 225 | 5.2 | 13.0 | 0.00 | 0.00 | 0.00 | 36 | 1008.1 |
| 20260502203039 | 73 | 204 | 5.2 | 11.3 | 0.00 | 0.00 | 0.00 | 39 | 1008.3 |
| 20260502201534 | 72 | 241 | 6.1 | 12.2 | 0.00 | 0.00 | 0.00 | 39 | 1008.5 |
| 20260502194548 | 71 | 240 | 6.1 | 13.9 | 0.00 | 0.00 | 0.00 | 41 | 1008.6 |
| 20260502193046 | 71 | 300 | 7.0 | 12.2 | 0.00 | 0.00 | 0.00 | 42 | 1008.7 |
| 20260502191555 | 71 | 303 | 7.8 | 13.9 | 0.00 | 0.00 | 0.00 | 42 | 1009.0 |
| 20260502184515 | 69 | 293 | 3.5 | 13.0 | 0.00 | 0.00 | 0.00 | 46 | 1009.6 |
| 20260502183005 | 68 | 246 | 6.1 | 13.0 | 0.00 | 0.00 | 0.00 | 47 | 1010.0 |
| 20260502181630 | 68 | 271 | 7.8 | 12.2 | 0.00 | 0.00 | 0.00 | 47 | 1010.2 |
| 20260502161510 | 63 | 231 | 5.2 | 12.2 | 0.00 | 0.00 | 0.00 | 55 | 1010.6 |
| 20260502151548 | 61 | 212 | 6.1 | 11.3 | 0.00 | 0.00 | 0.00 | 58 | 1010.1 |
| 20260502123155 | 56 | 229 | 6.1 | 11.3 | 0.00 | 0.01 | 0.00 | 67 | 1008.1 |
| 20260502121559 | 56 | 214 | 6.1 | 14.8 | 0.00 | 0.01 | 0.00 | 66 | 1008.1 |
| 20260502114558 | 56 | 209 | 4.3 | 12.2 | 0.00 | 0.01 | 0.00 | 68 | 1008.2 |
| 20260502114508 | 56 | 264 | 4.3 | 12.2 | 0.00 | 0.01 | 0.00 | 68 | 1008.2 |
| 20260502113156 | 56 | 229 | 5.2 | 10.4 | 0.00 | 0.01 | 0.00 | 67 | 1008.3 |
| 20260502111557 | 56 | 248 | 4.3 | 9.6 | 0.00 | 0.01 | 0.00 | 67 | 1008.2 |
| 20260502110157 | 56 | 234 | 5.2 | 11.3 | 0.00 | 0.01 | 0.00 | 67 | 1008.3 |
| 20260502104554 | 56 | 245 | 3.5 | 7.8 | 0.00 | 0.01 | 0.00 | 68 | 1008.5 |
| 20260502103155 | 56 | 240 | 2.6 | 7.0 | 0.00 | 0.01 | 0.00 | 68 | 1008.3 |
| 20260502101645 | 56 | 234 | 2.6 | 7.0 | 0.00 | 0.01 | 0.00 | 67 | 1008.2 |
| 20260502100122 | 56 | 246 | 0.0 | 0.0 | 0.00 | 0.01 | 0.00 | 67 | 1008.1 |
| 20260502091506 | 54 | 255 | 0.0 | 0.0 | 0.00 | 0.01 | 0.00 | 60 | 1008.0 |
| 20260502070026 | 56 | 260 | 0.0 | 0.0 | 0.00 | 0.82 | 0.00 | 61 | 1008.4 |
| 20260502064515 | 57 | 260 | 0.0 | 0.0 | 0.00 | 0.82 | 0.00 | 60 | 1008.2 |
| 20260502063008 | 59 | 258 | 0.0 | 0.0 | 0.00 | 0.82 | 0.00 | 58 | 1008.1 |
| 20260502061559 | 59 | 260 | 0.0 | 0.0 | 0.00 | 0.82 | 0.00 | 57 | 1008.1 |
| 20260502060059 | 60 | 260 | 0.0 | 0.0 | 0.00 | 0.82 | 0.00 | 57 | 1008.0 |
| 20260502054556 | 61 | 260 | 0.0 | 0.0 | 0.00 | 0.82 | 0.00 | 60 | 1008.0 |
| 20260502053056 | 62 | 259 | 0.0 | 0.0 | 0.00 | 0.82 | 0.00 | 61 | 1007.9 |
| 20260502051546 | 63 | 258 | 0.0 | 0.0 | 0.00 | 0.82 | 0.00 | 59 | 1007.8 |
| 20260502050044 | 63 | 269 | 0.0 | 0.0 | 0.00 | 0.83 | 0.00 | 58 | 1007.7 |
| 20260502044515 | 63 | 274 | 0.0 | 0.0 | 0.00 | 0.83 | 0.00 | 55 | 1007.7 |
| 20260502043113 | 63 | 260 | 0.0 | 0.0 | 0.00 | 0.83 | 0.00 | 56 | 1007.6 |
| 20260502041516 | 63 | 267 | 0.0 | 0.0 | 0.00 | 0.83 | 0.00 | 57 | 1007.5 |
| 20260502040109 | 63 | 257 | 0.0 | 0.0 | 0.00 | 0.86 | 0.00 | 58 | 1007.5 |
| 20260502034555 | 63 | 257 | 0.0 | 0.0 | 0.00 | 0.86 | 0.00 | 56 | 1007.1 |
| 20260502033050 | 63 | 257 | 0.0 | 0.0 | 0.00 | 0.86 | 0.00 | 56 | 1007.0 |
| 20260502031547 | 64 | 260 | 0.0 | 0.0 | 0.00 | 0.86 | 0.00 | 55 | 1006.8 |
| 20260502030049 | 64 | 261 | 0.0 | 0.0 | 0.00 | 0.89 | 0.00 | 55 | 1006.7 |
| 20260502024522 | 65 | 304 | 0.0 | 0.0 | 0.00 | 0.89 | 0.00 | 55 | 1006.5 |
| 20260502023029 | 66 | 15 | 0.0 | 0.0 | 0.00 | 0.89 | 0.00 | 53 | 1006.4 |
| 20260502021513 | 67 | 15 | 0.0 | 0.0 | 0.00 | 0.89 | 0.00 | 50 | 1006.2 |
| 20260502020011 | 68 | 15 | 0.0 | 0.0 | 0.00 | 0.89 | 0.89 | 45 | 1006.1 |
| 20260502014551 | 69 | 15 | 0.0 | 0.0 | 0.00 | 0.89 | 0.89 | 43 | 1006.0 |
| 20260502013100 | 69 | 15 | 0.0 | 0.0 | 0.00 | 0.89 | 0.89 | 40 | 1005.9 |
| 20260502011536 | 69 | 15 | 0.0 | 0.9 | 0.00 | 0.89 | 0.89 | 38 | 1006.0 |
| 20260502010036 | 70 | 8 | 0.0 | 2.6 | 0.00 | 0.89 | 0.89 | 36 | 1005.8 |
| 20260502004535 | 72 | 15 | 1.7 | 5.2 | 0.00 | 0.89 | 0.89 | 33 | 1005.8 |
| 20260502003035 | 73 | 7 | 0.9 | 6.1 | 0.00 | 0.89 | 0.89 | 33 | 1005.7 |
| 20260502001533 | 73 | 37 | 1.7 | 6.1 | 0.00 | 0.89 | 0.89 | 32 | 1005.7 |
| 20260502000032 | 73 | 55 | 1.7 | 6.1 | 0.00 | 0.89 | 0.89 | 31 | 1005.7 |
| 20260501234536 | 74 | 20 | 1.7 | 7.0 | 0.00 | 0.89 | 0.89 | 30 | 1005.6 |
| 20260501233028 | 75 | 30 | 0.9 | 3.5 | 0.00 | 0.89 | 0.89 | 28 | 1005.6 |
| 20260501231609 | 75 | 75 | 0.9 | 5.2 | 0.00 | 0.89 | 0.89 | 29 | 1005.7 |
| 20260501230057 | 74 | 100 | 0.0 | 5.2 | 0.00 | 0.89 | 0.89 | 29 | 1005.7 |